Back to catalog

TITAN 3C TRANSTAGE DEB

AliveHEO
NORAD 26777·DEBRIS·🇺🇸 United States

Launched Dec 21, 1965 from Cape Canaveral Space Force Station

Loading…

Next Passes (next 24 hours)

TLE

FreshSource: Space-Track

Epoch: Sep 13, 2026, 00:03 UTC

1 26777U 65108AV  26256.00232066 -.00000005  00000-0  00000-0 0  9995
2 26777  26.6768 162.1743 6692328 131.5814 356.1940  2.56629022 48294

Track TITAN 3C TRANSTAGE DEB in real time with AllMySat

Download on the App Store